www.pogodaiklimat.ru

Погода и климат >> Архив погоды >> Индонезия >> Nangapinoh


ПОГОДА в Nangapinoh

  • Прогноз погоды в Nangapinoh
  • Монитор погоды в Nangapinoh
  • Климат города

АРХИВ ПОГОДЫ в Nangapinoh

Время (UTC), дата Ветер
(напр.,м/с)
 
Видим.   Явления Облачность Т
(С)
Тd
(С)
f
(%)
Тe
(С)
Тes
(С)
Комфортность P
(гПа)
Po
(гПа)
Тmin
(С)
Tmax
(С)
R
(мм)
R24
(мм)
S
(см)
03 14.10 В 2 8000 м 8/6 300 м
[Cu med, cong Ac As Ci fib]
+27.6 +25.2 87 +40 +46 очень
душно
1010.5 1005.8
06 14.10 Ю 3 10 км 8/6 300 м
[Cb calv As op Ci fib]
+31.6 +24.6 66 +44 +49 опасность
перегрева
1006.2 1001.4
09 14.10 ЮЗ 2 10 км осадки на расстоянии 8/6 300 м
[Cb calv As op Ci fib]
+31.6 +24.3 65 +44 +45 опасность
перегрева
1004.9 1000.2
12 14.10 СЗ 1 1000 м слабый ливневой дождь, в посл. час гроза 10/6 300 м
[Cb cap As op]
+24.7 +23.7 94 +34 +34 очень
душно
1009.1 1004.3 +32.8 38
15 14.10 В 2 1000 м дымка {дождь} 10/6 300 м
[Cb cap As op]
+24.2 +23.6 96 +33 +33 очень
душно
1010.1 1005.3 0.0
00 15.10 штиль 0 2000 м дымка 10/6 300 м
[Cb cap As op]
+23.8 +23.3 97 +32 +32 очень
душно
1010.4 1005.6 +23.7 38
03 15.10 СВ 1 4000 м мгла 10/6 300 м
[Cb cap As op]
+25.6 +23.8 90 +35 +37 очень
душно
1010.6 1005.8
06 15.10 С 2 6000 м 10/6 300 м
[Cb cap As op]
+29.1 +25.3 80 +42 +44 опасность
перегрева
1008.0 1003.2
09 15.10 С 2 8000 м 10/6 300 м
[Cb cap As op]
+29.0 +25.0 79 +42 +42 опасность
перегрева
1006.7 1001.9
12 15.10 штиль 0 5000 м мгла 10/6 300 м
[Cb cap As op]
+27.6 +26.2 92 +42 +42 опасность
перегрева
1009.3 1004.5 +29.8
15 15.10 штиль 0 3000 м зарница 10/6 300 м
[Cb cap As op]
+26.4 +25.5 95 +39 +39 очень
душно
1010.7 1005.9
00 16.10 В 1 1000 м дымка 9/6 300 м
[Cu med, cong As op]
+25.2 +24.6 96 +35 +36 очень
душно
1011.3 1006.5 +23.7
03 16.10 СЗ 2 7000 м 9/6 300 м
[Cb cap Ac As Ci fib]
+29.4 +26.1 82 +44 +49 опасность
перегрева
1011.0 1006.2
06 16.10 СЗ 2 7000 м 9/6 300 м
[Cb cap As op]
+32.9 +24.5 61 +45 +48 опасность
перегрева
1007.6 1002.9
09 16.10 ЮВ 3 5000 м в посл. час дождь {гроза} 10/6 300 м
[Cb cap As op]
+24.9 +23.0 89 +33 +33 очень
душно
1008.1 1003.3 5
12 16.10 штиль 0 3000 м в посл. час дождь {гроза} 10/6 300 м
[Cb cap As op]
+23.8 +23.1 96 1001.3 +33.0 0.0
15 16.10 ЮВ 2 2000 м дымка 10/6 300 м
[Cb calv As op]
+23.6 +22.9 96 +31 +31 очень
душно
1013.2 1008.4
00 17.10 штиль 0 2000 м мгла 10/8 300 м
[Cu Sc As op]
+23.4 +22.5 95 +32 +33 очень
душно
1011.0 1006.2 +23.2 5
03 17.10 штиль 0 7000 м 9/6 300 м
[Cu med, cong As op Ci fib]
+26.4 +23.1 82 +35 +41 очень
душно
1011.8 1007.0
06 17.10 З 2 10 км 8/5 300 м
[Cu med, cong Ac As Ci fib]
+30.8 +23.5 65 +42 +49 опасность
перегрева
1008.6 1003.8
09 17.10 С 2 10 км 8/6 300 м
[Cb calv As op Ci fib]
+32.0 +23.9 62 +43 +44 опасность
перегрева
1007.2 1002.4
12 17.10 З 2 5000 м гроза без осадков 10/8 300 м
[Cb cap As op]
+25.5 +22.7 85 +34 +34 очень
душно
1011.4 1006.6 +32.6
15 17.10 В 2 4000 м мгла {гроза, дождь} 10/8 300 м
[Cb cap As op]
+23.4 +22.2 93 +32 +32 очень
душно
1011.4 1006.6 0.8
00 18.10 ЮЗ 1 2000 м дымка 10/8 300 м
[Cu Sc As op]
+22.8 +22.5 98 +31 +31 очень
душно
1011.1 1006.3 +22.7 0.8
03 18.10 Ю 2 10 км 8/6 300 м
[Cu med, cong As op Ci fib]
+27.2 +23.2 79 +37 +42 очень
душно
1011.3 1006.5
06 18.10 СВ 2 10 км 8/5 300 м
[Cu med, cong As op Ci fib]
+31.9 +24.3 64 +44 +51 опасность
перегрева
1008.5 1003.7
09 18.10 СЗ 2 8000 м слабый дождь 9/6 300 м
[Cb cap As op Ci fib]
+31.5 +24.6 67 +44 +45 опасность
перегрева
1007.9 1003.2 0.0
12 18.10 Ю 2 6000 м {дождь} 8/6 300 м
[Cb cap As op Ci fib]
+25.4 +24.3 94 +35 +35 очень
душно
1009.9 1005.2 +33.1 2
15 18.10 штиль 0 2000 м зарница 9/6 300 м
[Cb cap As op Ci fib]
+25.0 +24.1 95 +34 +34 очень
душно
1011.1 1006.3
00 19.10 штиль 0 1000 м дымка 9/6 300 м
[Cb calv As op]
+24.5 +23.7 95 +33 +34 очень
душно
1011.8 1007.1 +22.8 2
03 19.10 Ю 2 6000 м 8/6 300 м
[Cu med, cong As op Ci fib]
+30.4 +24.3 70 +42 +48 опасность
перегрева
1012.1 1007.3
06 19.10 штиль 0 10 км 8/6 300 м
[Cu med, cong As op Ci fib]
+33.7 +23.1 54 +44 +51 опасность
перегрева
1009.2 1004.4
09 19.10 СЗ 3 10 км 8/6 300 м
[Cu med, cong As op Ci fib]
+34.2 +23.5 54 +45 +46 опасность
перегрева
1007.6 1002.8
12 19.10 ЮВ 2 5000 м мгла 9/6 300 м
[Cb cap As op]
+30.0 +25.4 76 +44 +44 опасность
перегрева
1009.9 1005.1 +34.5
15 19.10 В 2 2000 м в посл. час дождь {гроза} 10/8 300 м
[Cb cap As op]
+24.7 +23.2 91 +33 +33 очень
душно
1012.8 1008.0 13
00 20.10 штиль 0 1000 м дымка 8/6 300 м
[Cu med, cong As op Ci fib]
+24.4 +23.8 96 +33 +34 очень
душно
1013.9 1009.1 +23.2 13
03 20.10 ЮЗ 2 10 км 8/6 300 м
[Cu med, cong As op Ci fib]
+30.0 +24.4 72 +42 +48 опасность
перегрева
1013.5 1008.7
06 20.10 З 3 10 км 8/6 300 м
[Cu med, cong As op Ci fib]
+33.2 +24.0 59 +45 +50 опасность
перегрева
1010.2 1005.5
09 20.10 СЗ 2 10 км гроза без осадков 9/6 300 м
[Cb cap As op Ci fib]
+33.5 +25.0 61 +47 +48 опасность
перегрева
1008.4 1003.6
12 20.10 З 2 1000 м гроза, ливневой дождь 10/8 300 м
[Cb cap As op]
+23.0 +22.3 96 +31 +31 очень
душно
1015.0 1010.2 +34.2 19
15 20.10 штиль 0 1000 м слабый дождь {гроза} 10/8 300 м
[Cb cap As op]
+22.2 +21.9 98 +29 +29 очень
душно
1015.3 1010.5 9
00 21.10 штиль 0 3000 м дымка 8/4 300 м
[Cu med, cong As op Ci fib]
+22.8 +22.2 96 +31 +32 очень
душно
1013.7 1008.9 +22.2 0.0

 

Местоположение метеостанции Nangapinoh (Индонезия): широта -0.35 долгота 111.78 высота над уровнем моря 37 м.

В архиве по умолчанию представлена погода в Nangapinoh за последнюю неделю. Архивные данные за месяц целиком и за предыдущие месяцы, начиная с января 2011 года, Вы можете получить, выбрав интересующий диапазон дат из раскрывающегося списка и нажав кнопку "Ввод!".

Внимание! Время в таблицах - всемирное. Для получения местного времени необходимо прибавить поправку, которая в Nangapinoh равна 7 ч.

Смотрите также архив погоды в соседних городах и на ближайших метеорологических станциях:

Погода в Sintang (Индонезия) (59 км)
Погода в Putussibau (Индонезия) (185 км)
Погода в Palangkaraya (Индонезия) (257 км)
Погода в Kuching (Малайзия) (260 км)
Погода в Pangkalan Bun (Индонезия) (262 км)
Погода в Ketapang (Индонезия) (262 км)
Погода в Pontianak (Индонезия) (266 км)
Погода в Sibu (Малайзия) (298 км)
Погода в Muaratewe (Индонезия) (353 км)
Погода в Paloh (Индонезия) (363 км)

Пояснения к столбцам:

Ветер - указаны скорость ветра в м/с - средняя за 10 мин, порывы в срок и между сроками (в фигурных скобках) и направление, откуда дует ветер: С - северный, СВ - северо-восточный, В - восточный, ЮВ - юго-восточный, Ю - южный, ЮЗ - юго-западный, З - западный, СЗ - северо-западный.
Видимость - горизонтальная дальность видимости в метрах или километрах. При видимости от 1 до 10 км при отсутствии осадков обычно наблюдается дымка, при ухудшении видимости до 1 км и менее - туман. В сухую погоду видимость может ухудшаться дымом, пылью или мглою.
Явления - указаны атмосферные явления, наблюдавшиеся в срок или в последний час перед сроком; фигурными скобками обозначены явления, наблюдавшиеся между сроками (за 1-3 часа до срока); квадратными скобками обозначены град или гололедные отложения с указанием их диаметра в мм.
Облачность - указаны через наклонную черту общая и нижняя облачность в баллах и высота нижней границы облаков в метрах; квадратными скобками обозначены формы облаков: Ci - перистые, Cs - перисто-слоистые, Cc - перисто-кучевые, Ac - высококучевые, As - высокослоистые, Sc - слоисто-кучевые, Ns - слоисто-дождевые, Cu - кучевые, Cb - кучево-дождевые. Подробнее классификацию облаков см. в Атласе облаков (PDF).
T - Температура воздуха - температура, измеренная на высоте 2 м над землей.
Td - Температура точки росы - температура, при понижении до которой содержащийся в воздухе водяной пар достигнет насыщения.
f - Относительная влажность воздуха - влажноcть воздуха, измеренная на высоте 2 м над землей.
Te - Эффективная температура - температура, которую ощущает одетый по сезону человек в тени. Характеристика душности погоды. При расчете учитывается влияние влажности воздуха и скорости ветра на теплоощущения человека.
Tes - Эффективная температура на солнце - температура, которую ощущает человек, с поправкой на солнечный нагрев. Характеристика знойности погоды. Зависит от высоты солнца над горизонтом, облачности и скорости ветра. Ночью, в пасмурную погоду, а также при ветре 12 м/с и более поправка равна нулю.
P - Атмосферное давление - приведенное к уровню моря атмосферное давление.
Po - Атмосферное давление - измеренное на уровне метеостанции атмосферное давление.
Tmin - Минимальная температура - минимум температуры воздуха на высоте 2 м над землей.
Tmax - Максимальная температура - максимум температуры воздуха на высоте 2 м над землей.
R - Количество осадков - Количество выпавших осадков за период времени, мм. При наведении курсора мыши на число - период времени, за который выпало указанное количество осадков.
R24 - Количество осадков - Количество выпавших осадков за 24 часа, мм.
S - Снежный покров - Высота снежного покрова, см. При наведении курсора мыши на число - состояние снежного покрова и степень покрытия местности в баллах.